Location: Sungai Buloh
(3.1000°N, 113.0000°E)
Time: 17:08:32
(UTC+00:00)

SL-14 R/B - Pass Details

Date: 12 January 2026
Orbit: 496 x 527 km, 82.4° (Epoch: 11 February)

Event Time Altitude Azimuth Distance (km) Brightness Sun altitude
Exits shadow 21:30:48 30° 261° (W) 908 3.9 -16.4°
Drops below altitude 10° 21:33:55 10° 204° (SSW) 1,692 5.8 -15.7°
Sets 21:36:12 0° 193° (SSW) 2,575 6.9 -15.2°
